QPF
0.01 0.02 0.01 0.01 0.00 0.01 0.01 0.00 0.00 0.00 0.00 0.00 0.00 0.00 0.00 0.00 0.00 0.01 0.01 0.01 0.01 0.01 0.01 0.03 0.04 0.04 0.04 0.03 0.03 0.03 0.03 0.03 0.04 0.05 0.04 0.02 0.03 0.03 0.03 0.04 0.04 0.03 0.03 0.02 0.03 0.03 0.02 0.02 0.01
0.01 0.02 0.01 0.01 0.00 0.00 0.00 0.00 0.00 0.00 0.01 0.00 0.00 0.00 0.00 0.00 0.00 0.00 0.01 0.02 0.02 0.01 0.01 0.02 0.04 0.03 0.03 0.03 0.03 0.03 0.04 0.04 0.04 0.06 0.06 0.03 0.04 0.05 0.04 0.04 0.03 0.03 0.03 0.03 0.03 0.03 0.03 0.02 0.01
0.01 0.01 0.01 0.00 0.00 0.00 0.00 0.00 0.00 0.01 0.01 0.00 0.00 0.00 0.00 0.01 0.00 0.01 0.01 0.02 0.02 0.02 0.02 0.02 0.03 0.02 0.02 0.03 0.03 0.04 0.04 0.04 0.05 0.08 0.07 0.05 0.04 0.05 0.05 0.03 0.03 0.03 0.03 0.03 0.04 0.03 0.02 0.02 0.01
0.02 0.01 0.01 0.00 0.00 0.00 0.00 0.01 0.00 0.01 0.01 0.00 0.00 0.01 0.00 0.01 0.01 0.01 0.02 0.03 0.02 0.03 0.04 0.03 0.03 0.02 0.02 0.03 0.03 0.04 0.04 0.04 0.05 0.08 0.08 0.08 0.07 0.06 0.05 0.04 0.03 0.03 0.03 0.03 0.03 0.02 0.01 0.01 0.01
0.02 0.01 0.01 0.00 0.00 0.00 0.00 0.01 0.01 0.00 0.01 0.01 0.00 0.00 0.00 0.00 0.01 0.01 0.02 0.03 0.03 0.04 0.04 0.04 0.04 0.02 0.02 0.02 0.03 0.04 0.05 0.04 0.04 0.06 0.07 0.09 0.10 0.08 0.06 0.05 0.04 0.03 0.02 0.03 0.02 0.02 0.01 0.01 0.01
0.02 0.02 0.01 0.00 0.00 0.00 0.00 0.00 0.01 0.00 0.00 0.01 0.01 0.01 0.01 0.01 0.01 0.01 0.03 0.05 0.05 0.04 0.05 0.05 0.05 0.03 0.02 0.02 0.03 0.04 0.05 0.05 0.04 0.05 0.05 0.06 0.09 0.10 0.08 0.06 0.04 0.03 0.02 0.02 0.01 0.01 0.01 0.01 0.01
0.01 0.01 0.01 0.00 0.00 0.00 0.00 0.00 0.00 0.01 0.00 0.01 0.01 0.01 0.01 0.01 0.01 0.02 0.04 0.05 0.06 0.05 0.04 0.05 0.05 0.04 0.03 0.03 0.04 0.05 0.05 0.05 0.04 0.04 0.05 0.05 0.06 0.08 0.09 0.08 0.05 0.04 0.03 0.02 0.01 0.01 0.01 0.00 0.00
0.01 0.01 0.01 0.01 0.00 0.00 0.00 0.00 0.01 0.01 0.01 0.01 0.01 0.01 0.01 0.02 0.03 0.02 0.04 0.06 0.07 0.07 0.04 0.05 0.05 0.05 0.05 0.04 0.05 0.05 0.06 0.06 0.05 0.04 0.03 0.04 0.04 0.06 0.08 0.08 0.07 0.06 0.03 0.02 0.01 0.01 0.01 0.01 0.01
0.00 0.01 0.01 0.01 0.01 0.00 0.00 0.00 0.01 0.01 0.01 0.01 0.01 0.01 0.01 0.02 0.03 0.03 0.03 0.06 0.10 0.11 0.07 0.05 0.04 0.04 0.05 0.04 0.04 0.05 0.07 0.07 0.05 0.03 0.03 0.04 0.04 0.04 0.05 0.07 0.08 0.08 0.05 0.03 0.01 0.01 0.01 0.00 0.01
0.01 0.01 0.01 0.01 0.01 0.00 0.00 0.00 0.01 0.01 0.01 0.01 0.00 0.00 0.00 0.01 0.02 0.04 0.03 0.05 0.10 0.12 0.14 0.07 0.05 0.04 0.04 0.05 0.04 0.04 0.05 0.07 0.08 0.06 0.05 0.04 0.05 0.05 0.04 0.04 0.07 0.08 0.06 0.04 0.02 0.01 0.01 0.00 0.00
0.02 0.02 0.01 0.01 0.01 0.01 0.00 0.00 0.01 0.01 0.01 0.01 0.00 0.00 0.00 0.01 0.02 0.04 0.04 0.03 0.06 0.09 0.14 0.14 0.09 0.08 0.06 0.05 0.05 0.04 0.03 0.05 0.09 0.09 0.07 0.06 0.06 0.06 0.06 0.04 0.06 0.10 0.09 0.05 0.02 0.02 0.01 0.00 0.00
0.02 0.01 0.01 0.01 0.01 0.01 0.01 0.01 0.01 0.01 0.01 0.01 0.00 0.00 0.01 0.01 0.02 0.03 0.04 0.03 0.03 0.06 0.08 0.12 0.11 0.09 0.07 0.05 0.06 0.04 0.03 0.04 0.06 0.09 0.09 0.08 0.07 0.06 0.06 0.05 0.04 0.07 0.10 0.07 0.03 0.01 0.01 0.01 0.00
0.01 0.01 0.01 0.01 0.02 0.01 0.01 0.01 0.01 0.01 0.01 0.01 0.00 0.01 0.01 0.01 0.01 0.02 0.03 0.04 0.03 0.05 0.06 0.07 0.07 0.07 0.09 0.08 0.08 0.06 0.05 0.05 0.05 0.08 0.09 0.09 0.07 0.06 0.06 0.06 0.04 0.04 0.08 0.09 0.05 0.02 0.01 0.01 0.01
0.01 0.00 0.01 0.01 0.02 0.02 0.02 0.02 0.01 0.01 0.01 0.02 0.01 0.01 0.01 0.01 0.01 0.01 0.02 0.03 0.02 0.04 0.04 0.04 0.05 0.06 0.07 0.08 0.10 0.08 0.07 0.06 0.05 0.07 0.07 0.06 0.06 0.07 0.06 0.04 0.04 0.04 0.06 0.08 0.07 0.03 0.02 0.02 0.01
0.00 0.01 0.01 0.01 0.01 0.02 0.02 0.01 0.01 0.01 0.01 0.02 0.02 0.01 0.01 0.01 0.01 0.01 0.02 0.03 0.03 0.03 0.04 0.03 0.03 0.05 0.07 0.07 0.08 0.08 0.07 0.07 0.06 0.06 0.07 0.05 0.05 0.06 0.07 0.06 0.03 0.02 0.03 0.07 0.07 0.05 0.02 0.02 0.01
0.01 0.01 0.01 0.01 0.01 0.01 0.01 0.01 0.01 0.01 0.01 0.01 0.01 0.01 0.01 0.01 0.01 0.01 0.02 0.02 0.03 0.03 0.04 0.04 0.03 0.04 0.06 0.06 0.07 0.07 0.06 0.07 0.06 0.05 0.06 0.07 0.07 0.07 0.08 0.10 0.07 0.02 0.02 0.05 0.06 0.05 0.04 0.03 0.02
0.01 0.01 0.01 0.01 0.01 0.01 0.01 0.01 0.01 0.01 0.01 0.01 0.01 0.01 0.01 0.01 0.01 0.01 0.01 0.02 0.02 0.03 0.05 0.06 0.04 0.04 0.05 0.05 0.06 0.08 0.06 0.06 0.05 0.05 0.06 0.07 0.07 0.07 0.08 0.10 0.11 0.07 0.03 0.03 0.04 0.04 0.04 0.04 0.03
0.01 0.00 0.00 0.01 0.01 0.01 0.00 0.01 0.01 0.01 0.01 0.01 0.01 0.01 0.01 0.01 0.01 0.01 0.01 0.01 0.02 0.03 0.05 0.07 0.06 0.04 0.04 0.05 0.05 0.07 0.08 0.06 0.06 0.06 0.07 0.07 0.08 0.08 0.08 0.08 0.09 0.10 0.08 0.06 0.04 0.04 0.04 0.04 0.03
0.01 0.00 0.01 0.01 0.01 0.00 0.00 0.00 0.01 0.01 0.01 0.01 0.01 0.01 0.00 0.00 0.00 0.00 0.01 0.01 0.01 0.03 0.05 0.07 0.07 0.05 0.05 0.05 0.05 0.06 0.07 0.05 0.05 0.05 0.06 0.07 0.08 0.10 0.10 0.09 0.08 0.10 0.13 0.11 0.06 0.03 0.03 0.03 0.03
0.01 0.01 0.00 0.00 0.00 0.00 0.00 0.00 0.00 0.01 0.01 0.01 0.01 0.01 0.00 0.00 0.00 0.00 0.00 0.01 0.02 0.03 0.03 0.05 0.06 0.06 0.06 0.04 0.04 0.04 0.05 0.05 0.04 0.05 0.05 0.07 0.09 0.11 0.12 0.10 0.09 0.09 0.12 0.13 0.10 0.06 0.02 0.02 0.03
0.02 0.01 0.01 0.00 0.00 0.00 0.00 0.00 0.00 0.00 0.01 0.02 0.02 0.01 0.00 0.00 0.00 0.00 0.00 0.01 0.01 0.02 0.03 0.03 0.04 0.05 0.05 0.05 0.04 0.04 0.04 0.04 0.05 0.06 0.07 0.08 0.10 0.12 0.13 0.12 0.10 0.10 0.10 0.12 0.13 0.10 0.05 0.02 0.02
0.02 0.01 0.01 0.00 0.00 0.00 0.00 0.00 0.00 0.00 0.00 0.01 0.02 0.02 0.01 0.00 0.00 0.00 0.00 0.00 0.01 0.01 0.02 0.03 0.03 0.04 0.04 0.05 0.06 0.05 0.04 0.03 0.03 0.03 0.05 0.06 0.08 0.11 0.11 0.12 0.12 0.11 0.10 0.09 0.09 0.10 0.08 0.05 0.03
0.01 0.01 0.01 0.01 0.01 0.00 0.00 0.00 0.00 0.00 0.00 0.01 0.01 0.02 0.01 0.00 0.00 0.00 0.00 0.00 0.00 0.01 0.01 0.02 0.02 0.03 0.03 0.03 0.04 0.05 0.05 0.03 0.02 0.02 0.02 0.03 0.05 0.06 0.08 0.08 0.10 0.12 0.11 0.10 0.08 0.07 0.08 0.07 0.06
0.01 0.01 0.02 0.02 0.02 0.02 0.00 0.00 0.00 0.00 0.00 0.00 0.01 0.01 0.01 0.01 0.00 0.00 0.00 0.00 0.00 0.01 0.01 0.02 0.02 0.02 0.02 0.02 0.02 0.03 0.04 0.03 0.03 0.02 0.02 0.02 0.03 0.04 0.04 0.05 0.06 0.08 0.09 0.09 0.09 0.08 0.07 0.08 0.08
0.02 0.03 0.05 0.05 0.05 0.03 0.00 0.00 0.00 0.00 0.00 0.00 0.00 0.01 0.01 0.01 0.01 0.00 0.00 0.00 0.01 0.01 0.01 0.01 0.02 0.02 0.02 0.02 0.02 0.02 0.02 0.02 0.03 0.03 0.03 0.03 0.03 0.03 0.03 0.03 0.04 0.05 0.06 0.06 0.06 0.07 0.07 0.07 0.08
0.02 0.03 0.04 0.04 0.03 0.01 0.00 0.00 0.00 0.00 0.00 0.00 0.00 0.01 0.01 0.01 0.01 0.01 0.01 0.01 0.01 0.01 0.01 0.01 0.01 0.02 0.02 0.01 0.01 0.01 0.01 0.01 0.02 0.02 0.02 0.03 0.03 0.04 0.04 0.04 0.04 0.04 0.05 0.05 0.05 0.05 0.05 0.06 0.06
0.02 0.03 0.02 0.03 0.02 0.01 0.00 0.00 0.00 0.00 0.00 0.00 0.00 0.01 0.01 0.01 0.01 0.01 0.01 0.01 0.01 0.01 0.01 0.01 0.01 0.01 0.01 0.01 0.01 0.01 0.01 0.01 0.01 0.01 0.02 0.02 0.02 0.03 0.03 0.03 0.03 0.04 0.04 0.05 0.05 0.05 0.06 0.05 0.05
0.02 0.02 0.03 0.04 0.03 0.01 0.01 0.00 0.00 0.00 0.00 0.00 0.01 0.01 0.01 0.01 0.01 0.01 0.01 0.01 0.01 0.01 0.01 0.01 0.01 0.01 0.01 0.02 0.02 0.02 0.02 0.01 0.01 0.01 0.02 0.02 0.02 0.02 0.03 0.03 0.03 0.03 0.04 0.04 0.05 0.06 0.06 0.05 0.05
0.01 0.02 0.03 0.04 0.02 0.02 0.01 0.00 0.00 0.00 0.00 0.00 0.01 0.01 0.01 0.01 0.01 0.01 0.01 0.01 0.01 0.01 0.01 0.01 0.02 0.02 0.02 0.02 0.02 0.02 0.02 0.02 0.02 0.01 0.01 0.01 0.02 0.02 0.02 0.02 0.02 0.03 0.03 0.03 0.04 0.05 0.05 0.05 0.05
0.00 0.01 0.02 0.04 0.03 0.01 0.01 0.01 0.00 0.00 0.00 0.00 0.01 0.01 0.01 0.01 0.01 0.01 0.01 0.01 0.01 0.01 0.01 0.01 0.01 0.01 0.01 0.01 0.02 0.02 0.02 0.02 0.02 0.02 0.01 0.01 0.01 0.01 0.01 0.02 0.02 0.03 0.03 0.03 0.03 0.03 0.04 0.04 0.04
MSLP
1012.87 1013.33 1013.99 1014.76 1015.55 1016.27 1016.85 1017.27 1017.54 1017.69 1017.80 1017.93 1018.12 1018.37 1018.67 1018.97 1019.22 1019.37 1019.39 1019.31 1019.14 1018.95 1018.79 1018.70 1018.71 1018.81 1018.98 1019.18 1019.37 1019.53 1019.65 1019.73 1019.80 1019.87 1019.97 1020.11 1020.28 1020.46 1020.62 1020.72 1020.77 1020.75 1020.68 1020.59 1020.49 1020.42 1020.38 1020.38 1020.39
1013.23 1013.82 1014.56 1015.36 1016.14 1016.80 1017.29 1017.61 1017.79 1017.87 1017.93 1018.03 1018.20 1018.44 1018.73 1019.02 1019.25 1019.38 1019.40 1019.31 1019.15 1018.98 1018.84 1018.78 1018.81 1018.93 1019.11 1019.31 1019.50 1019.66 1019.78 1019.87 1019.95 1020.05 1020.19 1020.36 1020.55 1020.75 1020.92 1021.03 1021.08 1021.07 1021.00 1020.90 1020.81 1020.74 1020.71 1020.71 1020.73
1013.67 1014.36 1015.15 1015.95 1016.67 1017.25 1017.64 1017.86 1017.94 1017.96 1017.98 1018.06 1018.22 1018.47 1018.75 1019.03 1019.25 1019.37 1019.39 1019.31 1019.18 1019.05 1018.95 1018.93 1019.00 1019.13 1019.31 1019.50 1019.68 1019.81 1019.92 1020.01 1020.09 1020.21 1020.36 1020.54 1020.75 1020.96 1021.14 1021.26 1021.32 1021.30 1021.24 1021.16 1021.07 1021.01 1020.99 1021.00 1021.03
1014.17 1014.92 1015.72 1016.49 1017.14 1017.62 1017.91 1018.04 1018.05 1018.02 1018.01 1018.09 1018.25 1018.49 1018.76 1019.03 1019.23 1019.35 1019.37 1019.32 1019.23 1019.15 1019.11 1019.14 1019.24 1019.40 1019.57 1019.74 1019.89 1020.00 1020.08 1020.15 1020.23 1020.34 1020.50 1020.69 1020.91 1021.13 1021.31 1021.44 1021.50 1021.51 1021.46 1021.39 1021.32 1021.28 1021.27 1021.30 1021.34
1014.66 1015.44 1016.22 1016.94 1017.51 1017.90 1018.11 1018.18 1018.15 1018.10 1018.10 1018.18 1018.34 1018.57 1018.83 1019.07 1019.25 1019.35 1019.37 1019.35 1019.31 1019.29 1019.31 1019.40 1019.54 1019.70 1019.87 1020.02 1020.13 1020.21 1020.26 1020.31 1020.39 1020.50 1020.67 1020.87 1021.09 1021.31 1021.50 1021.63 1021.71 1021.72 1021.70 1021.65 1021.61 1021.59 1021.59 1021.63 1021.68
1015.10 1015.87 1016.62 1017.27 1017.78 1018.11 1018.28 1018.32 1018.30 1018.28 1018.31 1018.41 1018.58 1018.79 1019.02 1019.21 1019.34 1019.41 1019.43 1019.42 1019.42 1019.45 1019.54 1019.68 1019.85 1020.03 1020.19 1020.31 1020.40 1020.45 1020.48 1020.53 1020.61 1020.74 1020.91 1021.13 1021.36 1021.58 1021.77 1021.90 1021.98 1022.01 1022.00 1021.98 1021.95 1021.95 1021.97 1022.01 1022.06
1015.46 1016.18 1016.88 1017.48 1017.94 1018.25 1018.43 1018.51 1018.55 1018.61 1018.70 1018.84 1019.02 1019.21 1019.38 1019.51 1019.57 1019.59 1019.58 1019.57 1019.59 1019.66 1019.79 1019.96 1020.15 1020.33 1020.49 1020.59 1020.66 1020.70 1020.74 1020.80 1020.91 1021.06 1021.27 1021.50 1021.75 1021.97 1022.15 1022.27 1022.35 1022.38 1022.38 1022.36 1022.35 1022.36 1022.39 1022.43 1022.47
1015.72 1016.39 1017.03 1017.59 1018.03 1018.37 1018.60 1018.78 1018.93 1019.09 1019.28 1019.48 1019.67 1019.84 1019.95 1019.99 1019.97 1019.91 1019.85 1019.81 1019.83 1019.91 1020.05 1020.24 1020.43 1020.61 1020.74 1020.84 1020.90 1020.95 1021.01 1021.11 1021.26 1021.47 1021.72 1021.99 1022.24 1022.46 1022.63 1022.74 1022.79 1022.81 1022.80 1022.79 1022.79 1022.80 1022.82 1022.86 1022.89
1015.93 1016.53 1017.12 1017.66 1018.11 1018.50 1018.84 1019.15 1019.44 1019.74 1020.03 1020.30 1020.52 1020.65 1020.70 1020.65 1020.54 1020.39 1020.25 1020.16 1020.15 1020.21 1020.34 1020.50 1020.68 1020.83 1020.95 1021.03 1021.09 1021.16 1021.26 1021.42 1021.64 1021.91 1022.21 1022.51 1022.78 1023.00 1023.15 1023.24 1023.27 1023.26 1023.24 1023.21 1023.21 1023.21 1023.24 1023.26 1023.28
1016.12 1016.67 1017.22 1017.75 1018.25 1018.72 1019.17 1019.63 1020.08 1020.52 1020.93 1021.26 1021.50 1021.60 1021.58 1021.45 1021.23 1020.99 1020.77 1020.61 1020.54 1020.55 1020.63 1020.75 1020.88 1020.99 1021.08 1021.14 1021.21 1021.30 1021.45 1021.67 1021.96 1022.30 1022.66 1022.99 1023.28 1023.49 1023.63 1023.68 1023.68 1023.65 1023.61 1023.58 1023.56 1023.57 1023.58 1023.59 1023.60
1016.35 1016.87 1017.40 1017.94 1018.49 1019.05 1019.63 1020.23 1020.83 1021.40 1021.90 1022.29 1022.54 1022.62 1022.54 1022.32 1022.02 1021.68 1021.38 1021.14 1020.99 1020.93 1020.94 1020.99 1021.05 1021.11 1021.15 1021.19 1021.25 1021.37 1021.56 1021.84 1022.19 1022.58 1022.98 1023.34 1023.64 1023.85 1023.96 1024.00 1023.98 1023.93 1023.87 1023.84 1023.82 1023.82 1023.83 1023.83 1023.82
1016.68 1017.18 1017.72 1018.28 1018.89 1019.54 1020.23 1020.95 1021.66 1022.33 1022.90 1023.32 1023.57 1023.62 1023.49 1023.21 1022.83 1022.43 1022.04 1021.73 1021.50 1021.35 1021.28 1021.24 1021.22 1021.20 1021.19 1021.20 1021.25 1021.38 1021.60 1021.91 1022.29 1022.72 1023.14 1023.51 1023.80 1024.00 1024.11 1024.13 1024.10 1024.04 1023.99 1023.96 1023.94 1023.95 1023.96 1023.96 1023.94
1017.10 1017.62 1018.18 1018.79 1019.46 1020.19 1020.96 1021.76 1022.54 1023.26 1023.86 1024.30 1024.53 1024.56 1024.39 1024.07 1023.65 1023.19 1022.75 1022.36 1022.05 1021.82 1021.65 1021.52 1021.41 1021.32 1021.25 1021.22 1021.25 1021.37 1021.59 1021.91 1022.30 1022.72 1023.14 1023.50 1023.78 1023.96 1024.06 1024.07 1024.05 1024.00 1023.96 1023.95 1023.95 1023.96 1023.97 1023.97 1023.94
1017.62 1018.17 1018.78 1019.45 1020.18 1020.97 1021.79 1022.63 1023.44 1024.16 1024.75 1025.17 1025.39 1025.40 1025.21 1024.88 1024.44 1023.96 1023.48 1023.05 1022.67 1022.36 1022.10 1021.88 1021.69 1021.52 1021.39 1021.32 1021.33 1021.43 1021.63 1021.93 1022.29 1022.68 1023.06 1023.38 1023.63 1023.79 1023.87 1023.89 1023.87 1023.84 1023.83 1023.83 1023.84 1023.86 1023.87 1023.87 1023.84
1018.18 1018.79 1019.46 1020.20 1020.98 1021.81 1022.66 1023.50 1024.29 1024.99 1025.54 1025.93 1026.13 1026.13 1025.96 1025.64 1025.22 1024.74 1024.26 1023.80 1023.37 1022.99 1022.66 1022.36 1022.09 1021.87 1021.69 1021.59 1021.57 1021.64 1021.82 1022.07 1022.38 1022.71 1023.02 1023.28 1023.48 1023.60 1023.65 1023.66 1023.65 1023.64 1023.64 1023.65 1023.67 1023.69 1023.70 1023.69 1023.64
1018.72 1019.41 1020.15 1020.95 1021.79 1022.64 1023.50 1024.31 1025.07 1025.71 1026.23 1026.58 1026.77 1026.79 1026.65 1026.38 1026.00 1025.57 1025.10 1024.63 1024.18 1023.75 1023.35 1022.99 1022.67 1022.40 1022.19 1022.07 1022.03 1022.09 1022.23 1022.43 1022.68 1022.92 1023.15 1023.33 1023.44 1023.51 1023.52 1023.51 1023.49 1023.47 1023.47 1023.48 1023.49 1023.50 1023.49 1023.46 1023.40
1019.22 1019.97 1020.78 1021.64 1022.52 1023.40 1024.24 1025.03 1025.73 1026.32 1026.79 1027.13 1027.32 1027.38 1027.31 1027.12 1026.82 1026.45 1026.03 1025.57 1025.10 1024.64 1024.19 1023.78 1023.42 1023.13 1022.91 1022.79 1022.75 1022.79 1022.91 1023.06 1023.24 1023.40 1023.53 1023.61 1023.63 1023.62 1023.57 1023.51 1023.45 1023.41 1023.38 1023.36 1023.35 1023.33 1023.29 1023.24 1023.16
1019.64 1020.44 1021.32 1022.23 1023.14 1024.02 1024.84 1025.59 1026.24 1026.78 1027.22 1027.56 1027.80 1027.93 1027.95 1027.87 1027.69 1027.41 1027.05 1026.62 1026.15 1025.65 1025.17 1024.73 1024.34 1024.04 1023.83 1023.72 1023.69 1023.74 1023.84 1023.96 1024.07 1024.15 1024.18 1024.16 1024.09 1023.98 1023.85 1023.72 1023.60 1023.50 1023.42 1023.35 1023.29 1023.23 1023.15 1023.07 1022.98
1020.00 1020.83 1021.75 1022.69 1023.61 1024.49 1025.28 1025.98 1026.58 1027.10 1027.53 1027.90 1028.20 1028.43 1028.58 1028.64 1028.58 1028.41 1028.13 1027.75 1027.28 1026.78 1026.27 1025.80 1025.39 1025.09 1024.89 1024.80 1024.80 1024.86 1024.96 1025.05 1025.11 1025.12 1025.07 1024.96 1024.79 1024.59 1024.37 1024.15 1023.94 1023.76 1023.61 1023.47 1023.35 1023.23 1023.12 1023.01 1022.90
1020.33 1021.17 1022.09 1023.03 1023.94 1024.79 1025.55 1026.20 1026.77 1027.26 1027.70 1028.12 1028.51 1028.86 1029.17 1029.38 1029.48 1029.43 1029.24 1028.91 1028.47 1027.96 1027.43 1026.94 1026.52 1026.21 1026.03 1025.95 1025.97 1026.05 1026.15 1026.24 1026.27 1026.23 1026.11 1025.91 1025.66 1025.37 1025.06 1024.74 1024.45 1024.18 1023.94 1023.73 1023.54 1023.38 1023.23 1023.10 1022.99
1020.68 1021.49 1022.39 1023.30 1024.17 1024.97 1025.67 1026.27 1026.80 1027.28 1027.75 1028.23 1028.73 1029.22 1029.68 1030.06 1030.31 1030.40 1030.31 1030.05 1029.65 1029.14 1028.61 1028.09 1027.66 1027.34 1027.16 1027.09 1027.13 1027.22 1027.32 1027.40 1027.41 1027.33 1027.17 1026.92 1026.60 1026.24 1025.85 1025.46 1025.08 1024.73 1024.42 1024.14 1023.90 1023.70 1023.53 1023.39 1023.28
1021.07 1021.84 1022.68 1023.53 1024.34 1025.06 1025.69 1026.24 1026.72 1027.20 1027.69 1028.24 1028.84 1029.47 1030.08 1030.62 1031.03 1031.26 1031.28 1031.10 1030.74 1030.26 1029.73 1029.20 1028.75 1028.42 1028.23 1028.15 1028.18 1028.27 1028.37 1028.43 1028.43 1028.34 1028.15 1027.87 1027.51 1027.11 1026.67 1026.22 1025.79 1025.39 1025.02 1024.69 1024.42 1024.20 1024.03 1023.90 1023.80
1021.54 1022.24 1023.00 1023.77 1024.49 1025.12 1025.67 1026.14 1026.58 1027.04 1027.56 1028.17 1028.86 1029.61 1030.36 1031.05 1031.60 1031.96 1032.09 1032.00 1031.70 1031.26 1030.74 1030.23 1029.77 1029.42 1029.20 1029.11 1029.12 1029.18 1029.26 1029.31 1029.29 1029.19 1028.99 1028.70 1028.34 1027.92 1027.46 1027.00 1026.54 1026.11 1025.72 1025.38 1025.10 1024.88 1024.72 1024.61 1024.52
1022.04 1022.68 1023.35 1024.02 1024.64 1025.17 1025.63 1026.03 1026.42 1026.87 1027.40 1028.05 1028.81 1029.65 1030.52 1031.33 1032.00 1032.48 1032.72 1032.71 1032.49 1032.11 1031.64 1031.14 1030.69 1030.33 1030.09 1029.97 1029.94 1029.97 1030.01 1030.04 1030.00 1029.89 1029.69 1029.41 1029.06 1028.66 1028.21 1027.76 1027.31 1026.89 1026.51 1026.18 1025.92 1025.73 1025.59 1025.50 1025.43
1022.57 1023.13 1023.72 1024.29 1024.80 1025.23 1025.60 1025.93 1026.28 1026.70 1027.24 1027.92 1028.73 1029.64 1030.58 1031.47 1032.24 1032.81 1033.14 1033.23 1033.10 1032.80 1032.38 1031.93 1031.51 1031.16 1030.91 1030.76 1030.69 1030.67 1030.67 1030.66 1030.60 1030.48 1030.29 1030.03 1029.71 1029.33 1028.93 1028.51 1028.10 1027.71 1027.37 1027.08 1026.86 1026.70 1026.60 1026.53 1026.48
1023.06 1023.56 1024.07 1024.55 1024.96 1025.30 1025.59 1025.86 1026.17 1026.58 1027.12 1027.82 1028.66 1029.60 1030.58 1031.53 1032.35 1032.98 1033.39 1033.57 1033.53 1033.32 1032.99 1032.62 1032.25 1031.93 1031.68 1031.51 1031.41 1031.35 1031.30 1031.25 1031.17 1031.04 1030.85 1030.61 1030.32 1029.99 1029.64 1029.27 1028.91 1028.58 1028.29 1028.05 1027.88 1027.76 1027.69 1027.65 1027.61
1023.52 1023.96 1024.39 1024.77 1025.09 1025.36 1025.58 1025.81 1026.11 1026.51 1027.06 1027.77 1028.63 1029.58 1030.57 1031.53 1032.37 1033.04 1033.51 1033.76 1033.81 1033.70 1033.47 1033.19 1032.90 1032.63 1032.41 1032.24 1032.12 1032.02 1031.94 1031.85 1031.74 1031.60 1031.42 1031.20 1030.95 1030.66 1030.36 1030.05 1029.74 1029.47 1029.23 1029.05 1028.92 1028.85 1028.82 1028.80 1028.77
1023.92 1024.31 1024.66 1024.96 1025.20 1025.39 1025.57 1025.78 1026.07 1026.49 1027.07 1027.79 1028.66 1029.61 1030.59 1031.53 1032.36 1033.04 1033.54 1033.84 1033.97 1033.96 1033.84 1033.67 1033.47 1033.27 1033.10 1032.95 1032.82 1032.71 1032.60 1032.49 1032.36 1032.21 1032.03 1031.83 1031.61 1031.36 1031.10 1030.84 1030.58 1030.36 1030.17 1030.04 1029.96 1029.92 1029.92 1029.93 1029.90
1024.32 1024.64 1024.91 1025.11 1025.26 1025.39 1025.54 1025.74 1026.05 1026.51 1027.11 1027.87 1028.74 1029.69 1030.65 1031.56 1032.36 1033.03 1033.53 1033.87 1034.06 1034.14 1034.12 1034.05 1033.95 1033.84 1033.73 1033.61 1033.50 1033.39 1033.27 1033.14 1033.00 1032.84 1032.67 1032.49 1032.29 1032.07 1031.85 1031.62 1031.41 1031.22 1031.07 1030.97 1030.93 1030.93 1030.95 1030.98 1030.97
1024.75 1024.98 1025.14 1025.24 1025.30 1025.36 1025.48 1025.68 1026.02 1026.52 1027.18 1027.97 1028.86 1029.81 1030.74 1031.62 1032.39 1033.03 1033.52 1033.88 1034.12 1034.26 1034.34 1034.36 1034.35 1034.32 1034.27 1034.20 1034.12 1034.01 1033.89 1033.76 1033.61 1033.46 1033.31 1033.14 1032.96 1032.77 1032.58 1032.38 1032.19 1032.02 1031.90 1031.83 1031.80 1031.83 1031.88 1031.92 1031.93
Thickness
5665 5667 5667 5660 5643 5628 5630 5641 5650 5655 5660 5665 5667 5666 5664 5662 5661 5661 5671 5676 5677 5677 5677 5678 5678 5678 5677 5677 5677 5676 5675 5675 5675 5675 5674 5674 5674 5674 5673 5672 5672 5672 5672 5671 5670 5669 5669 5668 5667
5660 5661 5656 5643 5627 5618 5627 5641 5647 5654 5659 5661 5661 5661 5659 5659 5662 5664 5668 5672 5673 5674 5673 5674 5674 5673 5673 5673 5672 5672 5671 5671 5670 5670 5670 5670 5670 5669 5669 5668 5668 5668 5667 5666 5665 5664 5664 5663 5663
5654 5653 5641 5627 5618 5619 5632 5643 5645 5651 5655 5656 5653 5653 5654 5655 5657 5659 5664 5667 5668 5669 5669 5669 5669 5668 5668 5668 5667 5667 5666 5666 5666 5666 5665 5665 5665 5665 5664 5664 5663 5663 5663 5662 5661 5660 5659 5658 5658
5646 5638 5628 5618 5619 5624 5632 5640 5644 5646 5649 5650 5650 5646 5648 5651 5652 5656 5660 5662 5663 5663 5664 5663 5663 5663 5663 5662 5662 5662 5661 5661 5661 5661 5660 5660 5660 5660 5659 5659 5659 5658 5658 5657 5656 5655 5654 5653 5653
5635 5625 5616 5609 5616 5624 5630 5636 5639 5639 5640 5642 5644 5642 5643 5646 5649 5652 5655 5656 5657 5657 5658 5658 5657 5657 5657 5657 5657 5656 5656 5656 5656 5655 5655 5655 5655 5655 5653 5653 5653 5653 5652 5652 5651 5650 5649 5648 5648
5619 5612 5603 5604 5613 5621 5626 5631 5633 5632 5634 5635 5636 5637 5639 5642 5643 5646 5648 5649 5650 5651 5652 5651 5651 5651 5651 5651 5651 5650 5651 5651 5650 5650 5649 5649 5648 5648 5647 5646 5647 5647 5647 5646 5645 5645 5644 5643 5643
5610 5602 5599 5603 5607 5614 5622 5627 5626 5626 5627 5628 5630 5631 5634 5636 5637 5639 5641 5642 5643 5643 5644 5644 5644 5644 5644 5644 5644 5645 5645 5645 5645 5644 5643 5642 5642 5641 5641 5640 5640 5640 5641 5640 5640 5639 5639 5638 5638
5607 5599 5597 5596 5602 5609 5617 5621 5622 5621 5622 5624 5625 5625 5626 5629 5631 5633 5634 5634 5634 5635 5636 5636 5636 5637 5637 5638 5638 5638 5638 5638 5638 5637 5637 5636 5634 5634 5634 5634 5634 5634 5634 5634 5634 5633 5633 5632 5632
5604 5590 5589 5595 5599 5606 5612 5613 5615 5616 5616 5616 5617 5619 5622 5624 5624 5625 5625 5626 5626 5627 5627 5628 5628 5629 5630 5630 5631 5631 5632 5632 5631 5631 5630 5629 5627 5627 5627 5627 5628 5627 5627 5628 5627 5627 5626 5626 5625
5592 5583 5591 5597 5599 5601 5604 5604 5605 5607 5607 5609 5611 5613 5615 5616 5617 5617 5617 5617 5619 5619 5619 5619 5620 5621 5622 5623 5623 5624 5624 5624 5624 5624 5623 5622 5620 5620 5620 5620 5620 5620 5620 5621 5621 5620 5620 5619 5619
5585 5584 5589 5593 5595 5596 5597 5597 5598 5600 5600 5602 5604 5606 5607 5607 5608 5608 5609 5609 5610 5611 5611 5612 5612 5613 5614 5615 5616 5616 5616 5616 5617 5616 5616 5615 5613 5613 5613 5612 5612 5613 5613 5613 5613 5613 5613 5612 5613
5579 5581 5584 5586 5588 5589 5589 5590 5589 5591 5594 5597 5598 5598 5599 5599 5599 5599 5601 5601 5601 5602 5604 5605 5605 5605 5606 5606 5607 5608 5608 5608 5608 5608 5608 5608 5606 5605 5605 5605 5605 5605 5605 5606 5606 5606 5606 5605 5606
5573 5575 5577 5578 5579 5579 5581 5580 5581 5584 5586 5588 5590 5590 5590 5590 5591 5591 5591 5591 5592 5594 5595 5596 5597 5599 5599 5599 5600 5600 5600 5600 5601 5601 5601 5601 5600 5599 5599 5598 5598 5598 5598 5598 5599 5599 5598 5598 5598
5567 5567 5568 5570 5572 5573 5573 5573 5574 5580 5578 5580 5581 5580 5580 5581 5583 5583 5583 5583 5584 5586 5587 5589 5591 5591 5592 5592 5592 5592 5592 5592 5593 5593 5593 5593 5593 5592 5592 5592 5591 5591 5592 5592 5592 5592 5592 5591 5591
5559 5558 5561 5564 5565 5565 5566 5566 5567 5571 5570 5572 5572 5572 5571 5572 5573 5573 5574 5575 5576 5578 5580 5582 5583 5584 5584 5585 5585 5585 5584 5584 5585 5585 5585 5585 5585 5585 5585 5585 5585 5585 5585 5585 5585 5584 5584 5584 5584
5551 5547 5548 5558 5557 5557 5555 5558 5564 5562 5562 5562 5562 5562 5562 5562 5563 5564 5565 5566 5568 5569 5572 5574 5575 5576 5577 5578 5578 5577 5577 5577 5577 5577 5577 5577 5578 5578 5578 5577 5578 5578 5578 5578 5577 5577 5576 5576 5576
5536 5533 5538 5546 5549 5548 5546 5549 5555 5554 5553 5552 5552 5552 5553 5554 5554 5555 5556 5557 5559 5560 5563 5565 5567 5568 5569 5569 5569 5569 5569 5569 5568 5568 5569 5569 5569 5569 5570 5570 5570 5570 5570 5570 5570 5569 5568 5567 5567
5527 5524 5528 5533 5538 5537 5536 5540 5546 5545 5542 5542 5542 5543 5544 5545 5546 5546 5547 5549 5550 5552 5554 5556 5558 5560 5560 5561 5560 5560 5559 5559 5559 5559 5559 5560 5561 5561 5562 5562 5562 5562 5563 5563 5562 5561 5560 5559 5559
5523 5520 5519 5524 5528 5527 5528 5532 5539 5538 5534 5533 5534 5534 5536 5537 5538 5538 5538 5539 5541 5543 5545 5547 5549 5550 5551 5551 5551 5551 5550 5549 5549 5549 5550 5551 5552 5552 5553 5553 5554 5554 5554 5554 5554 5553 5552 5550 5551
5514 5511 5511 5515 5519 5518 5518 5525 5531 5530 5529 5529 5529 5529 5529 5528 5528 5528 5529 5530 5531 5533 5535 5537 5539 5539 5540 5541 5541 5541 5540 5540 5540 5540 5540 5541 5542 5543 5544 5544 5544 5545 5545 5545 5545 5545 5544 5543 5543
5507 5504 5504 5504 5507 5508 5507 5518 5524 5526 5524 5524 5523 5522 5521 5521 5519 5519 5519 5520 5521 5522 5524 5527 5528 5529 5529 5530 5530 5530 5530 5530 5530 5530 5530 5530 5532 5533 5533 5534 5535 5535 5536 5536 5536 5536 5537 5536 5534
5502 5502 5500 5498 5493 5490 5494 5494 5516 5518 5517 5520 5517 5514 5512 5511 5510 5510 5510 5510 5511 5512 5514 5516 5517 5518 5518 5519 5520 5520 5519 5519 5519 5519 5519 5520 5521 5522 5523 5524 5524 5525 5526 5527 5527 5528 5528 5528 5527
5495 5496 5491 5490 5485 5479 5480 5478 5502 5507 5512 5515 5513 5508 5504 5502 5501 5500 5501 5501 5501 5502 5503 5505 5506 5507 5507 5507 5508 5507 5507 5507 5507 5509 5509 5510 5511 5512 5513 5514 5514 5516 5517 5517 5518 5519 5519 5519 5519
5486 5482 5478 5470 5468 5465 5473 5471 5493 5498 5509 5510 5506 5502 5498 5495 5493 5491 5491 5491 5491 5492 5493 5494 5495 5495 5495 5495 5495 5495 5495 5495 5496 5497 5498 5499 5500 5501 5501 5503 5505 5506 5506 5507 5508 5508 5509 5509 5509
5478 5469 5458 5454 5443 5456 5469 5469 5488 5501 5501 5501 5498 5493 5490 5486 5483 5482 5481 5481 5481 5481 5483 5483 5483 5483 5483 5483 5483 5483 5484 5484 5485 5485 5486 5487 5488 5489 5490 5491 5494 5495 5495 5496 5497 5498 5498 5498 5498
5467 5466 5455 5448 5442 5450 5456 5461 5486 5492 5489 5487 5485 5483 5480 5476 5473 5472 5471 5470 5470 5471 5471 5472 5472 5472 5472 5472 5471 5471 5472 5472 5472 5473 5474 5474 5475 5477 5478 5480 5482 5483 5484 5485 5485 5486 5487 5487 5488
5457 5452 5456 5441 5423 5424 5444 5453 5473 5482 5480 5477 5474 5472 5468 5465 5463 5462 5461 5460 5459 5459 5460 5460 5461 5461 5461 5460 5460 5460 5460 5460 5460 5461 5462 5462 5463 5464 5466 5467 5469 5471 5472 5473 5473 5474 5476 5476 5476
5449 5443 5434 5431 5426 5427 5447 5455 5467 5477 5473 5468 5464 5460 5457 5454 5451 5451 5450 5449 5449 5448 5448 5448 5449 5449 5449 5448 5448 5448 5448 5448 5449 5449 5450 5450 5451 5452 5454 5456 5457 5458 5460 5461 5462 5463 5463 5464 5464
5432 5430 5429 5423 5422 5423 5428 5454 5465 5468 5466 5460 5456 5453 5449 5445 5442 5440 5438 5438 5437 5437 5437 5437 5437 5437 5437 5436 5436 5436 5436 5436 5437 5437 5438 5438 5439 5440 5442 5443 5445 5446 5448 5449 5450 5450 5451 5451 5452
5425 5425 5422 5421 5412 5411 5423 5448 5461 5455 5452 5448 5446 5444 5441 5435 5431 5429 5427 5426 5425 5425 5425 5425 5425 5424 5424 5424 5424 5423 5424 5424 5425 5425 5425 5426 5427 5428 5429 5431 5432 5433 5435 5436 5437 5438 5438 5438 5439